Location: Treviso
(45.6669°N, 12.2430°E)
Time: 08:25:07
(UTC+02:00)

ISS - Pass Details

Date: 17 May 2018
Orbit: 402 x 407 km, 51.6° (Epoch: 26 May)

Event Time Altitude Azimuth Distance (km) Brightness Sun altitude
Rises 04:12:26 0° 296° (WNW) 2,319 -0.2 -12.7°
Reaches altitude 10° 04:14:37 10° 306° (NW) 1,459 -1.1 -12.4°
Maximum altitude 04:17:40 35° 14° (NNE) 670 -2.1 -12.1°
Drops below altitude 10° 04:20:42 10° 83° (E) 1,457 -0.2 -11.7°
Sets 04:22:53 0° 93° (E) 2,315 0.7 -11.4°
